Terug naar catalogus

XINGYUN-2 01

ActiefCommunicatieSSO
NORAD 45602·PAYLOAD·🇨🇳 China

Gelanceerd May 12, 2020 vanaf Jiuquan Satellite Launch Center

Loading…

Volgende Passages (komende 24 uur)

TLE

VersSource: Space-Track

Epoch: Sep 14, 2026, 22:46 UTC

1 45602U 20028A   26257.94898557  .00001030  00000-0  63497-4 0  9993
2 45602  97.4947 248.6266 0007194 253.1475 106.8966 15.12131337348403

Volg XINGYUN-2 01 in realtime met AllMySat

Download on the App Store